This is the latest recevied weather packets stored in our database for station/object SALT. If no packets are shown the sender has not sent any weather packets the latest 10 day(s).
| Time | Temp. | Humidity | Pressure | Rain* | Wind** | Luminosity | Snow |
|---|---|---|---|---|---|---|---|
| 1778207398 | 10° C | 54% | 1020 hPa | 0 mm | - | - | - |
| 1778206795 | 10.56° C | 52% | 1020 hPa | 0 mm | - | - | - |
| 1778206193 | 11.11° C | 51% | 1019.9 hPa | 0 mm | - | - | - |
| 1778205590 | 11.67° C | 50% | 1020 hPa | 0 mm | - | - | - |
| 1778204985 | 12.22° C | 48% | 1019.9 hPa | 0 mm | - | - | - |
| 1778204383 | 12.22° C | 45% | 1019.7 hPa | 0 mm | - | - | - |
| 1778203780 | 12.78° C | 44% | 1019.7 hPa | 0 mm | - | - | - |
| 1778203226 | 12.78° C | 43% | 1019.7 hPa | 0 mm | - | - | - |
| 1778203177 | 12.78° C | 43% | 1019.7 hPa | 0 mm | - | - | - |
| 1778202575 | 13.33° C | 43% | 1019.8 hPa | 0 mm | - | - | - |
| 1778201973 | 13.33° C | 42% | 1019.8 hPa | 0 mm | - | - | - |
| 1778201400 | 13.33° C | 41% | 1019.8 hPa | 0 mm | - | - | - |
| 1778201368 | 13.33° C | 41% | 1019.8 hPa | 0 mm | - | - | - |
| 1778200766 | 13.33° C | 42% | 1019.7 hPa | 0 mm | - | - | - |
| 1778200163 | 13.89° C | 41% | 1019.7 hPa | 0 mm | - | - | - |
| 1778199559 | 13.89° C | 42% | 1019.5 hPa | 0 mm | - | - | - |
| 1778198957 | 13.33° C | 42% | 1019.7 hPa | 0 mm | - | - | - |
| 1778198354 | 13.33° C | 42% | 1019.5 hPa | 0 mm | - | - | - |
| 1778197749 | 13.89° C | 42% | 1019.4 hPa | 0 mm | - | - | - |
| 1778197147 | 13.89° C | 41% | 1019.4 hPa | 0 mm | - | - | - |
| 1778196544 | 13.89° C | 42% | 1019.4 hPa | 0 mm | - | - | - |
| 1778195942 | 13.89° C | 42% | 1019.5 hPa | 0 mm | - | - | - |
| 1778195341 | 13.89° C | 44% | 1019.4 hPa | 0 mm | - | - | - |
| 1778194736 | 14.44° C | 45% | 1019.4 hPa | 0 mm | - | - | - |
| 1778194131 | 13.89° C | 46% | 1019.4 hPa | 0 mm | - | - | - |
* Rain latest 24 hours (hover to see other rain measurements)
** Current wind speed in m/s (hover to see current wind gust speed)